TimeEST,TemperatureF,Dew PointF,Humidity,Sea Level PressureIn,VisibilityMPH,Wind Direction,Wind SpeedMPH,Gust SpeedMPH,PrecipitationIn,Events,Conditions,WindDirDegrees,DateUTC
12:56 AM,24.1,21.0,88,30.02,4.0,West,4.6,-,N/A,,Overcast,270,2013-12-18 05:56:00
1:56 AM,23.0,21.0,92,30.03,4.0,West,3.5,-,N/A,,Overcast,270,2013-12-18 06:56:00
2:56 AM,23.0,21.0,92,30.04,3.0,Calm,Calm,-,N/A,,Overcast,0,2013-12-18 07:56:00
3:56 AM,24.1,21.0,88,30.06,3.0,West,5.8,-,N/A,,Overcast,260,2013-12-18 08:56:00
4:56 AM,25.0,21.9,88,30.07,4.0,West,5.8,-,N/A,,Overcast,270,2013-12-18 09:56:00
5:56 AM,23.0,19.9,88,30.08,3.0,WSW,3.5,-,N/A,,Mostly Cloudy,240,2013-12-18 10:56:00
6:56 AM,24.1,21.0,88,30.11,5.0,WSW,8.1,-,N/A,,Mostly Cloudy,250,2013-12-18 11:56:00
7:56 AM,28.0,19.9,72,30.13,8.0,West,6.9,-,N/A,,Mostly Cloudy,280,2013-12-18 12:56:00
8:56 AM,28.9,19.9,69,30.14,10.0,WSW,5.8,-,N/A,,Clear,240,2013-12-18 13:56:00
9:56 AM,32.0,21.0,64,30.15,10.0,West,11.5,-,N/A,,Clear,260,2013-12-18 14:56:00
10:56 AM,34.0,19.9,56,30.15,10.0,West,13.8,20.7,N/A,,Scattered Clouds,260,2013-12-18 15:56:00
11:56 AM,35.1,17.1,48,30.14,10.0,West,11.5,19.6,N/A,,Partly Cloudy,280,2013-12-18 16:56:00
12:56 PM,36.0,16.0,44,30.13,10.0,West,11.5,21.9,N/A,,Scattered Clouds,260,2013-12-18 17:56:00
1:56 PM,36.0,16.0,44,30.12,10.0,West,13.8,19.6,N/A,,Clear,270,2013-12-18 18:56:00
2:56 PM,35.1,18.0,50,30.14,10.0,WSW,11.5,-,N/A,,Clear,250,2013-12-18 19:56:00
3:56 PM,35.1,19.0,52,30.16,10.0,WSW,9.2,-,N/A,,Overcast,250,2013-12-18 20:56:00
4:56 PM,33.1,19.9,59,30.17,10.0,WSW,5.8,-,N/A,,Clear,250,2013-12-18 21:56:00
5:56 PM,33.1,21.0,61,30.19,10.0,West,6.9,-,N/A,,Overcast,270,2013-12-18 22:56:00
6:56 PM,32.0,21.0,64,30.21,10.0,West,4.6,-,N/A,,Overcast,260,2013-12-18 23:56:00
7:56 PM,32.0,21.9,66,30.21,10.0,Calm,Calm,-,N/A,,Overcast,0,2013-12-19 00:56:00
8:56 PM,30.0,21.0,69,30.20,10.0,Calm,Calm,-,N/A,,Partly Cloudy,0,2013-12-19 01:56:00
9:56 PM,27.0,21.0,78,30.20,10.0,Calm,Calm,-,N/A,,Clear,0,2013-12-19 02:56:00
10:56 PM,25.0,19.0,78,30.19,9.0,Calm,Calm,-,N/A,,Clear,0,2013-12-19 03:56:00
11:56 PM,23.0,19.0,85,30.20,7.0,Calm,Calm,-,N/A,,Clear,0,2013-12-19 04:56:00